Meteo Giornale » Osservazioni meteo Montenegro » Podgorica

ore: 12:30 - Osservazioni Meteo Podgorica
Lat. 42° 26' N Lon. 19° 17' E Alt. 53 metri s.l.m.

molto_nuvoloso Europe/Podgorica

14 °C

Molto Nuvoloso

Temp. 24 Ore

11 °C

17 °C

Ovest

9.3 Km/h

Dew point 11 °C

Umidità 82 %

Visibilità  10 Km

Il sole sorge alle ore 07:06

Il sole tramonta alle ore 17:47

Data e Ora Cielo e Fenomeni T °C DP °C Um. % Pres. hPa Vis. km Vento km/h
Oggi h: 12:30 molto_nuvoloso Molto Nuvoloso 14 11 82 1016 10 O 9.3
Oggi h: 12:00 nuvoloso Nuvoloso 14 12 87 1016 10 O/SO 7.4
Oggi h: 11:30 molto_nuvoloso Molto Nuvoloso 13 12 93 1016 10 S/SE 9.3
Oggi h: 11:00 coperto_pioggia Pioggia Debole 13 11 87 1016 10 N 5.5
Oggi h: 10:30 coperto_pioggia Pioggia Debole 12 11 93 1016 10 N 3.7
Oggi h: 10:00 coperto_pioggia Pioggia 12 11 93 1016 8 N 5.5
Oggi h: 09:30 coperto_pioggia Pioggia 12 11 93 1016 7 O/NO 7.4
Oggi h: 09:00 coperto_pioggia Pioggia 12 11 93 1016 8 NO 7.4
Oggi h: 08:30 coperto_pioggia Pioggia Debole 12 11 93 1016 10 N 7.4
Oggi h: 08:00 coperto_pioggia Pioggia Debole 12 11 93 1016 10 N 3.7
Oggi h: 07:30 coperto Coperto 12 11 93 1015 10 N 1.8
Oggi h: 07:00 coperto Coperto 12 11 93 1015 10 N 0
Oggi h: 05:00 coperto Coperto 11 11 100 1016 10 N 0
Oggi h: 04:30 coperto Coperto 11 10 93 1016 10 N 5.5
Oggi h: 04:00 coperto Coperto 11 10 93 1016 10 N 3.7
Oggi h: 03:30 coperto Coperto 11 11 100 1016 10 N 1.8
Oggi h: 03:00 coperto Coperto 12 11 93 1016 10 N 1.8
Oggi h: 02:30 coperto Coperto 12 11 93 1017 10 N 3.7
Oggi h: 02:00 coperto_pioggia Pioggia Debole 12 11 93 1017 10 N/NO 7.4
Oggi h: 01:30 coperto_pioggia Pioggia Debole 12 11 93 1017 10 N 7.4
Oggi h: 01:00 coperto_pioggia Pioggia Debole 12 12 100 1018 10 N 7.4
Oggi h: 00:30 coperto_pioggia Pioggia Debole 13 11 87 1018 10 N 3.7
Oggi h: 00:00 coperto_pioggia Pioggia Debole 13 11 87 1018 10 N 5.5
Ieri h: 23:30 coperto_pioggia Pioggia Debole 13 11 87 1018 10 O 7.4
Ieri h: 23:00 coperto_pioggia Pioggia 13 11 87 1017 10 N 5.5
Ieri h: 22:30 coperto_pioggia Pioggia Debole 13 11 87 1017 10 O/NO 11.1
Ieri h: 22:00 coperto_pioggia Pioggia Debole 14 10 76 1017 10 N/NO 9.3
Ieri h: 21:30 coperto_pioggia Pioggia Debole 14 11 82 1018 10 N/NO 9.3
Ieri h: 21:00 molto_nuvoloso Molto Nuvoloso 14 11 82 1018 10 N 5.5
Ieri h: 20:30 molto_nuvoloso Molto Nuvoloso 13 11 87 1018 10 N 3.7
Ieri h: 20:00 molto_nuvoloso Molto Nuvoloso 13 11 87 1017 10 N 1.8
Ieri h: 19:30 molto_nuvoloso Molto Nuvoloso 13 10 81 1017 10 E/NE 7.4
Ieri h: 19:00 molto_nuvoloso Molto Nuvoloso 13 10 81 1017 10 N 1.8
Ieri h: 18:00 molto_nuvoloso Molto Nuvoloso 15 11 76 1017 10 N 3.7
Ieri h: 17:30 molto_nuvoloso Molto Nuvoloso 16 11 72 1017 10 N 1.8
Ieri h: 16:30 molto_nuvoloso Molto Nuvoloso 17 9 59 1017 10 N 1.8
Ieri h: 16:00 molto_nuvoloso Molto Nuvoloso 17 9 59 1017 10 N 0
Ieri h: 15:30 molto_nuvoloso Molto Nuvoloso 17 9 59 1017 10 N 1.8
Ieri h: 15:00 molto_nuvoloso Molto Nuvoloso 17 9 59 1018 10 N 3.7
Ieri h: 14:30 molto_nuvoloso Molto Nuvoloso 17 9 59 1018 10 N 3.7
Ieri h: 14:00 molto_nuvoloso Molto Nuvoloso 17 9 59 1018 10 N 0
Ieri h: 13:30 molto_nuvoloso Molto Nuvoloso 17 9 59 1018 10 N 3.7
Ieri h: 13:00 molto_nuvoloso Molto Nuvoloso 17 8 55 1018 10 N 1.8